TIME,DELAY(SENSOR),PRES,OXYGEN,RAWTEMP,T(OPTODE),TCPHASE,FLUOR,BETA(BETA700),BETA(BETA412),BETA(BETA440),CDOM,C(CSC),ED(ED411.90),ED(ED443.80),ED(ED489.40),ED(ED554.70),LU(LU412.20),LU(LU443.80),LU(LU489.40),LU(LU555.00),COMP,TILTX,TILTY,CHECK
1346881792,5805,875.0900268554688000,170.4109039306640600,383.0722961425781000,11.1181001663208000,37.9239883422851560,52,102,97,77,76,13558,2146956178,2147513865,2147280768,2147499035,2147089462,2146927844,2147696210,2147122212,1983,-2,8,35137
1346885388,5803,990.7500000000000000,181.3726043701172000,472.5176086425781000,8.3796749114990230,38.6317214965820300,53,104,99,79,79,13550,2146958244,2147516937,2147292434,2147519835,2147089892,2146922587,2147715227,2147118665,1411,-2,8,51958
1346888988,5805,1010.5999755859375000,191.2937927246093800,486.0596923828125000,7.9613409042358400,38.2062606811523440,52,104,100,78,78,13540,2146957750,2147515995,2147290889,2147521060,2147090880,2146923008,2147718272,2147116644,3484,-1,8,27181
1346892588,5808,1016.8699951171875000,192.7991943359375000,487.6870117187500000,7.9109950065612790,38.1380386352539060,52,105,100,81,79,13541,2146955309,2147517778,2147292946,2147518043,2147093229,2146916361,2147714505,2147117174,187,-2,8,48393
1346896188,5807,1020.3400268554688000,194.9132995605468800,490.1243896484375000,7.8355522155761720,38.0449409484863300,52,112,100,79,80,13529,2146955218,2147513417,2147292726,2147520585,2147091556,2146923757,2147717376,2147117440,223,-2,8,52073
1346899788,5807,1022.6199951171875000,195.3898010253906200,492.1051940917969000,7.7742180824279785,38.0494804382324200,52,114,99,80,78,13531,2146955437,2147511570,2147294610,2147518409,2147090249,2146926208,2147719789,2147116169,855,-1,8,16844
1346903388,5806,1026.1099853515625000,196.8049011230468800,492.0798950195312500,7.7750000953674320,37.9598999023437500,53,103,99,79,80,13531,2146955968,2147515510,2147290294,2147519369,2147089709,2146919085,2147716608,2147120347,2840,-2,8,2989
1346906988,5805,1026.5000000000000000,196.9577026367187500,493.1760864257812500,7.7410430908203125,37.9690895080566400,52,104,99,80,79,13526,2146953856,2147516809,2147294052,2147519433,2147088466,2146914678,2147717385,2147117440,141,-2,8,12589
1346910588,5806,1025.9899902343750000,197.5832061767578000,493.6115112304687500,7.7275538444519040,37.9380989074707000,53,105,100,78,79,13527,2146955437,2147513417,2147292178,2147518765,2147089408,2146919250,2147714550,2147120685,101,-2,8,7513
1346914188,5807,1029.3599853515625000,197.4290924072265600,493.4237060546875000,7.7333741188049320,37.9442405700683600,51,103,98,80,80,13520,2146954029,2147513197,2147290075,2147520502,2147089325,2146921965,2147718582,2147121106,3111,-2,8,39122
1346917788,5807,1027.3699951171875000,197.8090972900390600,494.0472106933594000,7.7140541076660160,37.9316596984863300,53,106,99,78,80,13462,2146953572,2147515492,2147292516,2147517979,2147091382,2146921563,2147716361,2147120118,708,-2,8,64251
1346921388,5804,1027.6400146484375000,198.8448944091797000,495.5187072753906000,7.6684541702270510,37.8921394348144500,52,108,100,78,79,13462,2146955163,2147514084,2147290560,2147519789,2147087049,2146920969,2147718171,2147119186,2440,-2,8,12638
1346924988,5808,1024.2299804687500000,199.9830017089843800,496.8937988281250000,7.6258292198181150,37.8460083007812500,53,106,98,79,79,13463,2146953554,2147514806,2147295497,2147520484,2147089371,2146921773,2147717686,2147118272,108,-2,8,34972
1346928588,5805,1025.4799804687500000,199.8668975830078000,496.7365112304687500,7.6307067871093750,37.8503494262695300,53,108,99,79,80,13462,2146953280,2147514304,2147293092,2147522084,2147088950,2146923794,2147715785,2147116352,114,-2,8,64044
1346932188,5806,1031.1500244140625000,198.2243957519531200,495.8111877441406000,7.6593890190124510,37.9359016418457000,52,104,99,79,78,13459,2146956315,2147519433,2147294189,2147519552,2147093357,2146920182,2147717760,2147117979,626,-2,8,12286
1346935788,5806,1028.1099853515625000,199.8392028808593800,496.1583862304687500,7.6486248970031740,37.8423309326171900,52,105,100,79,79,13461,2146956224,2147514688,2147293485,2147518116,2147092032,2146927158,2147715876,2147118729,3016,-2,8,13879
1346939388,5805,1028.9100341796875000,199.9331054687500000,496.2499084472656000,7.6457901000976560,37.8382301330566400,52,102,99,78,80,13455,2146960164,2147515638,2147294317,2147519798,2147089170,2146924032,2147720228,2147121581,2791,-2,8,61108
1346942988,5803,1029.1999511718750000,199.4790954589843800,497.3215942382812500,7.6125631332397460,37.8841896057128900,52,102,100,78,79,13455,2146955373,2147516635,2147296658,2147519862,2147089408,2146918253,2147719643,2147114797,3509,-2,8,49107
1346946588,5808,1031.4399414062500000,200.2911987304687500,496.5419921875000000,7.6367349624633790,37.8208618164062500,52,105,99,79,79,13455,2146956132,2147516470,2147296329,2147520338,2147089490,2146915145,2147720192,2147118098,3081,-1,8,10811
1346950188,5806,1030.6199951171875000,200.7348937988281200,497.2496948242187500,7.6147928237915040,37.8059501647949200,52,107,99,78,79,13423,2146955675,2147516653,2147290724,2147517568,2147091876,2146919195,2147717860,2147119149,3011,-2,8,50783
1346953788,5802,1034.7199707031250000,200.1204071044922000,496.2644042968750000,7.6453418731689450,37.8266296386718750,52,104,101,79,79,13425,2146955300,2147516205,2147293595,2147519186,2147092918,2146921517,2147719012,2147120438,3114,-2,8,35187
1346957388,5809,1025.7800292968750000,197.2993011474609400,494.5994873046875000,7.6969428062438965,37.9724884033203100,52,107,99,78,78,13418,2146954221,2147517558,2147295661,2147520640,2147089563,2146920210,2147717595,2147115273,17,-1,8,40354
1346960988,5808,1027.6600341796875000,196.8011932373047000,494.0469970703125000,7.7140622138977050,37.9947700500488300,53,109,99,79,79,13419,2146954596,2147518811,2147297517,2147518784,2147089581,2146923227,2147719131,2147120438,245,-1,8,17683
1346964588,5804,1029.1899414062500000,196.7474060058593800,493.5538024902344000,7.7293429374694820,37.9890708923339840,53,103,99,80,79,13390,2146955849,2147518107,2147292845,2147516361,2147091529,2146922569,2147716781,2147120310,3258,-2,8,43292
1346968188,5805,1027.0899658203125000,196.0621948242187500,493.7824096679687500,7.7222609519958500,38.0366706848144500,52,104,100,79,78,13418,2146956928,2147518848,2147293165,2147521600,2147089270,2146926244,2147715364,2147118866,478,-1,8,63301
1346971788,5806,1027.6700439453125000,197.5171051025390600,494.2267150878906000,7.7084941864013670,37.9527397155761700,53,101,100,79,78,13405,2146952896,2147515958,2147294564,2147522770,2147090980,2146923547,2147719561,2147116900,3419,-2,8,25764
1346975388,5806,1028.9100341796875000,197.1537933349609400,494.8640136718750000,7.6887450218200680,37.9869804382324200,53,104,100,80,79,13402,2146954112,2147516864,2147292598,2147519195,2147090898,2146921197,2147720009,2147119131,535,-1,8,52096
1346978988,5808,1026.1999511718750000,197.1826019287109400,494.5263061523437500,7.6992111206054690,37.9783515930175800,53,108,99,79,80,13402,2146958445,2147516416,2147292187,2147521645,2147090797,2146925211,2147718381,2147119122,214,-2,8,19121
1346982588,5806,1027.7900390625000000,198.7384033203125000,495.2345886230469000,7.6772608757019040,37.8944702148437500,53,106,99,79,79,13398,2146957641,2147519058,2147293796,2147520274,2147089499,2146921654,2147717814,2147117028,2912,-2,8,10246
1346986188,5803,1020.6900024414062000,198.7915954589843800,495.6589050292969000,7.6641077995300290,37.8986816406250000,53,104,99,79,79,13398,2146955776,2147517915,2147293860,2147517833,2147090797,2146922368,2147720786,2147117174,3539,-2,8,61750
1346989788,5807,1021.4600219726562000,200.4524993896484400,497.3511047363281000,7.6116499900817870,37.8247795104980500,52,103,101,79,79,13397,2146955547,2147515858,2147294326,2147520219,2147089664,2146923227,2147716196,2147116452,658,-2,8,34226
1346993388,5808,1026.2399902343750000,199.9732055664062500,496.0635070800781000,7.6515669822692870,37.8324317932128900,52,105,100,79,79,13395,2146956278,2147517120,2147295478,2147518884,2147091483,2146925531,2147719990,2147119259,64,-2,8,13652
1346996988,5809,1030.4799804687500000,198.5903015136718800,495.0361938476562500,7.6834077835083010,37.8995018005371100,53,105,99,80,79,13393,2146956452,2147512493,2147290998,2147520027,2147091510,2146923236,2147719744,2147117147,1,-2,8,28916
1347000588,5809,1030.3199462890625000,198.5939025878906200,495.2732849121094000,7.6760611534118650,37.9038009643554700,52,103,99,79,79,13390,2146953746,2147516873,2147289984,2147518006,2147091638,2146922212,2147721563,2147117814,38,-1,8,44149
1347004188,5806,1027.7800292968750000,197.8607940673828000,495.6958007812500000,7.6629648208618160,37.9570617675781250,52,105,98,87,79,13392,2146954861,2147519872,2147294217,2147514432,2147088301,2146927104,2147714514,2147121856,459,-2,8,52130
1347007788,5807,1027.8900146484375000,197.5626068115234400,495.6572875976562500,7.6641597747802730,37.9745216369628900,52,104,100,79,79,13388,2146959058,2147516224,2147292891,2147518692,2147091163,2146922998,2147716324,2147118272,766,-2,8,57960
1347011388,5807,1030.9699707031250000,198.0675964355468800,495.6064147949219000,7.6657347679138180,37.9425582885742200,52,104,98,80,78,13384,2146957028,2147518235,2147292553,2147520832,2147090075,2146921042,2147712201,2147121225,3490,-2,8,49486
1347014988,5805,1029.1300048828125000,199.3018035888672000,496.0963134765625000,7.6505508422851560,37.8743400573730500,53,105,98,79,79,13387,2146958308,2147515035,2147294345,2147520923,2147091437,2146923812,2147718180,2147118262,3409,-2,8,50900
1347018588,5806,1025.9000244140625000,199.2471008300781200,496.7009887695312500,7.6318039894104000,37.8875808715820300,53,105,119,78,79,13387,2146953929,2147516425,2147295076,2147520786,2147089499,2146916882,2147721792,2147117696,290,-2,8,42380
1347022188,5807,1027.8499755859375000,197.7115936279297000,497.6903076171875000,7.6011319160461430,38.0004806518554700,52,102,99,79,79,13387,2146956598,2147518491,2147294171,2147520438,2147091026,2146920877,2147719734,2147119524,232,-2,8,25798
1347024955,5807,1028.8800048828125000,199.2901000976562500,496.9444885253906000,7.6242580413818360,37.8899192810058600,52,104,100,79,79,13515,2146956379,2147520137,2147292973,2147518262,2147092480,2146920758,2147720804,2147117659,312,-1,8,50951
